map of ABZ home
ABZ - Airport
Location
City:  Aberdeen, Aberdeenshire, Scotland, United Kingdom
Name:Dyce
ICAO:EGPD
IATA:ABZ

Details
Type:Airport (Aerodrome, Airfield)
Use:Public/Civil, International (customs port of entry)
Latitude:5712'09"N (57.202500)
Longitude:211'53"W (-2.198055)
Elevation:215 ft (66 m)
Variation:1.85W (WMM2015 magnetic declination)
0.17 annual change
Runways:4
Longest:6407 × 151 ft (1953 × 46 m), paved

Time
Time Zone:UTC+0 (DST+1)
Local Time:

Weather
METAR:EGPD 121550Z AUTO 16020KT 9999 FEW024 OVC039 08/03 Q1020 NOSIG
TAF:EGPD 121056Z 1212/1312 16015KT 9999 BKN016
TEMPO 1212/1312 17018G30KT
TEMPO 1212/1218 BKN014 PROB30
TEMPO 1218/1306 7000 SHRA

Related Locations
Nearby:
Farthest:SZS: 11610 mi / 18684 km
Ryan's Creek, Stewart Island, STL, NZ

Find:

   beyond  
but within

Other Information
Maps:
NOTAMs:
Links:
Sources:

  
  • flag of United Kingdom
  • flag of Scotland
  

Airport Diagram

Airport diagram for ABZ

Airport diagram PDF

Sectional Chart

Flight Planning
at skyvector.com

Satellite Image

Google Maps Satellite view

 

Copyright © 2004-2018 Karl L. Swartz. All rights reserved.
The Great Circle Mapper name and logo are trademarks of the Great Circle Mapper.
All other trademarks mentioned herein belong to their respective owners.
Please see credits for attibutions and further copyright information.

  Follow gcmap on Facebook Follow gcmap on Twitter Follow gcmap on Google+ GCmap on LinkedIn

hCard Microformat

Geo Microformat